Regional Weather Roundup
Issued by NWS

Home | Current Version | Previous Version | Text Only | Print | Product List | Glossary Off
Versions: 1 2 3 4 5 6 7 8 9 10 11 12 13 14 15 16 17 18 19 20 21 22 23 24 25 26 27 28 29 30 31 32 33 34 35 36 37 38 39 40 41 42 43 44 45 46 47 48 49 50

000
ASUS45 KCYS 302010
RWRWY

WYOMING REGIONAL WEATHER ROUNDUP
NATIONAL WEATHER SERVICE CHEYENNE WY
200 PM MDT TUE JUN 30 2015

NOTE:  "FAIR" INDICATES FEW OR NO CLOUDS BELOW 12,000 FEET
WITH NO SIGNIFICANT WEATHER AND/OR OBSTRUCTIONS TO VISIBILITY.

WYZ001-302100-
YELLOWSTONE NATIONAL PARK

CITY           SKY/WX    TMP DP  RH WIND       PRES   REMARKS
LK YELLOWSTONE   N/A     76  40  27 W9G22     30.34F
W YELLOWSTONE  NOT AVBL

$$
WYZ002>013-054>058-071-098>099-302100-
NORTHERN WYOMING

CITY           SKY/WX    TMP DP  RH WIND       PRES   REMARKS
JACKSON        MOSUNNY   81  50  34 CALM      30.23F
CODY           FAIR      73  55  53 NW5       30.09F
GREYBULL       FAIR      92  46  20 NW15G26   29.97F
WORLAND        FAIR      94  51  23 N12       30.00F HX  91
SHERIDAN       FAIR      90  56  31 NW20G26   29.99F
BUFFALO        LGT RAIN  79  55  43 N7        30.08F
GILLETTE       FAIR      84  58  40 NW10G21   30.02F
HULETT         FAIR      82  55  39 NW5       30.01F
NEWCASTLE      FAIR      84  52  32 MISG      30.00S

$$
WYZ014>020-022>026-101>103-302100-
CENTRAL WYOMING

CITY           SKY/WX    TMP DP  RH WIND       PRES   REMARKS
BIG PINEY      FAIR      89  41  18 NW13G22   30.27F
PINEDALE       FAIR      84  41  21 NW12      30.28F
DUBOIS         FAIR      81  41  24 W16G23    30.25F
LANDER         FAIR      89  49  25 S6        30.08F
RIVERTON       FAIR      89  49  25 NE12      30.09F
CASPER         FAIR      91  46  21 VRB7      30.10F
DOUGLAS        FAIR      87  49  26 NW12      30.07R

$$
WYZ021-027>030-104>119-302100-
SOUTHERN WYOMING

CITY           SKY/WX    TMP DP  RH WIND       PRES   REMARKS
EVANSTON       FAIR      86  46  24 VRB7      30.28F
KEMMERER       FAIR      86  41  20 NW12G17   30.30F
FORT BRIDGER   PTCLDY    91  39  16 N14G23    30.29F
ROCK SPRINGS   FAIR      90  43  19 NW15G24   30.22F
DIXON          FAIR      93  38  14 W9        30.21F
RAWLINS        FAIR      89  41  18 NW10G23   30.21F
SARATOGA       FAIR      88  41  19 W13       30.22F
LARAMIE        FAIR      80  43  26 NW6       30.25F
CHEYENNE       LGT RAIN  83  41  22 NW10G41   30.16R
TORRINGTON     FAIR      94  51  23 S6        29.97F HX  91
PINE BLUFFS    FAIR      90  45  20 S9        30.07F

$$


USA.gov is the U.S. government's official web portal to all federal, state and local government web resources and services.